FW1204 Weather Reports


Display with metric or nautical units.
time (UTC)temp
F
wind
direction
speed
MPH
gust
MPH
rain 1hr
in
rain 24hr
in
rain mn
in
humidity
%
barometer
mb
20260507154510 58 360 10.0 25.0 0.00 0.01 0.00 63 1015.9
20260507153005 57 360 11.0 20.0 0.00 0.01 0.00 63 1016.2
20260507151502 56 360 12.0 20.0 0.00 0.01 0.00 65 1016.4
20260507150113 56 360 11.0 21.0 0.00 0.01 0.00 66 1016.5
20260507144556 55 360 10.0 19.0 0.00 0.01 0.00 71 1016.7
20260507143104 54 360 10.0 18.0 0.00 0.01 0.00 72 1016.8
20260507141550 53 360 9.0 20.0 0.00 0.01 0.00 74 1017.0
20260507140046 52 360 11.0 18.0 0.00 0.01 0.00 75 1017.2
20260507134542 51 360 8.0 18.0 0.00 0.01 0.00 77 1017.2
20260507133045 50 360 10.0 17.0 0.00 0.01 0.00 79 1017.3
20260507131546 49 360 8.0 14.0 0.00 0.01 0.00 81 1017.2
20260507130041 48 360 7.0 14.0 0.00 0.01 0.00 82 1017.4
20260507124538 46 360 4.0 11.0 0.00 0.01 0.00 85 1017.2
20260507123034 45 360 4.0 8.0 0.00 0.01 0.00 86 1017.1
20260507121534 44 360 3.0 9.0 0.00 0.01 0.00 87 1017.1
20260507120033 43 360 3.0 6.0 0.00 0.01 0.00 87 1017.2
20260507114534 43 360 3.0 6.0 0.00 0.01 0.00 87 1017.2
20260507113030 43 360 3.0 6.0 0.00 0.01 0.00 87 1017.2
20260507111529 43 360 4.0 8.0 0.00 0.01 0.00 86 1017.4
20260507110027 44 360 4.0 9.0 0.00 0.01 0.00 86 1017.2
20260507104525 44 360 5.0 10.0 0.00 0.01 0.00 86 1017.3
20260507103024 44 360 5.0 10.0 0.00 0.01 0.00 86 1017.3
20260507101522 44 360 4.0 12.0 0.00 0.01 0.00 86 1017.4
20260507100019 44 360 5.0 11.0 0.00 0.01 0.00 86 1017.4
20260507094518 45 360 5.0 10.0 0.00 0.01 0.00 86 1017.5
20260507093017 45 360 4.0 11.0 0.00 0.01 0.00 86 1017.5
20260507091513 45 360 4.0 10.0 0.00 0.01 0.00 86 1017.5
20260507090011 45 360 3.0 6.0 0.00 0.01 0.00 86 1017.7
20260507084529 45 360 3.0 6.0 0.00 0.01 0.00 85 1017.8
20260507083005 45 360 2.0 5.0 0.00 0.01 0.00 85 1018.2
20260507081504 44 360 3.0 5.0 0.00 0.01 0.00 85 1018.1
20260507080003 44 360 3.0 5.0 0.00 0.01 0.00 85 1018.4
20260507074608 45 360 2.0 6.0 0.00 0.01 0.00 84 1018.4
20260507073057 45 360 3.0 6.0 0.00 0.01 0.00 84 1018.5
20260507071604 45 360 2.0 5.0 0.00 0.01 0.00 82 1018.6
20260507070104 46 360 3.0 5.0 0.00 0.01 0.00 82 1018.6
20260507064554 46 360 2.0 5.0 0.00 0.01 0.00 82 1018.8
20260507063047 46 360 2.0 4.0 0.00 0.01 0.00 81 1019.0
20260507061542 47 360 3.0 5.0 0.00 0.01 0.00 79 1019.0
20260507060039 48 360 3.0 5.0 0.00 0.01 0.00 78 1019.1
20260507054552 48 360 3.0 5.0 0.00 0.01 0.00 76 1019.1
20260507053034 49 360 2.0 6.0 0.00 0.01 0.00 75 1019.3
20260507051532 50 360 3.0 5.0 0.00 0.01 0.00 73 1019.3
20260507050040 50 360 3.0 8.0 0.00 0.01 0.01 73 1019.3
20260507044530 50 360 2.0 5.0 0.00 0.01 0.01 72 1019.3
20260507043028 50 360 2.0 5.0 0.00 0.01 0.01 72 1019.4
20260507041527 50 360 3.0 8.0 0.00 0.01 0.01 72 1019.4
20260507040026 50 360 2.0 6.0 0.00 0.04 0.01 71 1019.3
20260507034526 50 360 2.0 5.0 0.00 0.04 0.01 72 1019.5
20260507033025 50 360 2.0 4.0 0.00 0.04 0.01 72 1019.5
20260507031527 50 360 2.0 4.0 0.00 0.04 0.01 70 1019.2
20260507030024 51 360 2.0 4.0 0.00 0.04 0.01 68 1019.2
20260507024528 50 360 3.0 5.0 0.00 0.04 0.01 68 1019.4
20260507023023 50 360 2.0 4.0 0.00 0.04 0.01 67 1019.5
20260507021529 49 360 2.0 3.0 0.00 0.04 0.01 68 1019.1
20260507020022 49 360 2.0 4.0 0.00 0.04 0.01 69 1018.7
20260507014522 49 360 2.0 4.0 0.00 0.04 0.01 70 1018.7
20260507013022 49 360 3.0 4.0 0.00 0.04 0.01 70 1018.8
20260507011523 51 360 2.0 4.0 0.00 0.04 0.01 66 1018.7
20260507010029 53 360 2.0 4.0 0.00 0.04 0.01 62 1018.5
20260507004519 55 360 2.0 4.0 0.00 0.04 0.01 60 1018.5
20260507003019 56 360 3.0 6.0 0.00 0.04 0.01 57 1018.6
20260507001518 57 360 5.0 9.0 0.00 0.04 0.01 53 1018.6
20260507000024 57 360 3.0 6.0 0.00 0.04 0.01 53 1018.7
20260506234517 58 360 5.0 11.0 0.00 0.04 0.01 48 1018.7
20260506233016 59 360 4.0 10.0 0.00 0.04 0.01 48 1018.6
20260506231519 59 360 3.0 6.0 0.00 0.04 0.01 44 1018.8
20260506230016 59 360 5.0 10.0 0.00 0.04 0.01 44 1018.8
20260506224515 59 360 7.0 10.0 0.00 0.04 0.01 46 1018.8
20260506223014 59 360 2.0 19.0 0.00 0.04 0.01 46 1018.7
20260506221513 59 360 2.0 10.0 0.00 0.04 0.01 46 1018.8
20260506220013 59 360 4.0 10.0 0.00 0.04 0.01 45 1019.0
20260506214512 59 360 4.0 9.0 0.00 0.04 0.01 45 1019.1
20260506213009 58 360 8.0 12.0 0.00 0.04 0.01 49 1019.1
20260506211511 57 360 4.0 8.0 0.00 0.04 0.01 49 1019.4
20260506210012 57 360 5.0 9.0 0.00 0.04 0.01 49 1019.7
20260506204515 58 325 5.0 10.0 0.00 0.04 0.01 51 1019.8
20260506203006 58 360 5.0 11.0 0.00 0.04 0.01 50 1020.0
20260506201509 58 360 6.0 12.0 0.00 0.04 0.01 49 1020.2
20260506200009 58 360 2.0 9.0 0.00 0.04 0.01 52 1020.6
20260506194502 57 349 4.0 11.0 0.00 0.04 0.01 53 1020.7
20260506193100 56 360 3.0 12.0 0.00 0.04 0.01 54 1020.9
20260506191605 55 360 2.0 6.0 0.00 0.04 0.01 53 1020.9
20260506190057 55 46 4.0 9.0 0.00 0.04 0.01 53 1020.7
20260506184600 54 360 2.0 10.0 0.00 0.04 0.01 54 1020.8
20260506183103 55 360 4.0 9.0 0.00 0.04 0.01 56 1020.7
20260506181605 54 360 4.0 9.0 0.00 0.04 0.01 57 1020.8
20260506180055 55 360 1.0 8.0 0.00 0.04 0.01 54 1021.0
20260506174553 55 360 4.0 10.0 0.00 0.04 0.01 58 1021.2
20260506173116 54 360 4.0 10.0 0.00 0.04 0.01 55 1021.1
20260506171548 53 360 3.0 8.0 0.00 0.04 0.01 62 1021.1
20260506164544 52 360 6.0 11.0 0.01 0.04 0.01 64 1021.5
20260506163051 52 360 4.0 8.0 0.01 0.04 0.01 67 1021.6
20260506161539 51 360 3.0 9.0 0.01 0.04 0.01 68 1021.4
20260506160039 50 360 6.0 10.0 0.01 0.04 0.01 69 1021.3